Akron, New York, United States (14001)
Lat: 43.02N, Lon: 78.5W
Wx Zone: NYZ010
Local Info
Past Weather Observations for Today

NOTE: This archive is for the closest National Weather Service station to Akron. Information may differ from the station used for current weather conditions.

Click here for Long-term Archive

Time Weather Temperature Dewpoint Humidity Pressure Winds Precip Visibility
16:54
Overcast
37°F / 3°C 28°F / -2°C 70% 30.04 in
(1017 mb)
W 26.5 mph
(W 43 kph)
0.00 in
(0.00 mm)
10SM
15:54
Overcast
Small Hail
37°F / 3°C 30°F / -1°C 75% 29.98 in
(1015 mb)
SSW 15 mph
(SSW 24 kph)
0.00 in
(0.00 mm)
10SM
15:51
Overcast
Small Hail
37°F / 3°C 30°F / -1°C 75% 29.98 in
(1015 mb)
SSW 17.3 mph
(SSW 28 kph)
0.00 in
(0.00 mm)
10SM
14:54
Overcast
37°F / 3°C 30°F / -1°C 75% 29.98 in
(1015 mb)
SSW 27.6 mph
(SSW 44 kph)
- 10SM
13:54
Overcast
39°F / 4°C 30°F / -1°C 70% 29.95 in
(1014 mb)
SSW 25.3 mph
(SSW 41 kph)
0.00 in
(0.00 mm)
10SM
13:27
Overcast
39°F / 4°C 28°F / -2°C 65% 29.92 in
(1013 mb)
SSW 29.9 mph
(SSW 48 kph)
0.00 in
(0.00 mm)
10SM
12:54
Overcast
Light Rain
39°F / 4°C 28°F / -2°C 65% 29.92 in
(1013 mb)
SW 27.6 mph
(SW 44 kph)
0.00 in
(0.00 mm)
10SM
11:54
Overcast
39°F / 4°C 27°F / -3°C 61% 29.92 in
(1013 mb)
SW 23 mph
(SW 37 kph)
- 10SM
10:54
Overcast
39°F / 4°C 28°F / -2°C 65% 29.92 in
(1013 mb)
SW 24.2 mph
(SW 39 kph)
- 10SM
09:54
Overcast
Light Rain
39°F / 4°C 28°F / -2°C 65% 29.89 in
(1012 mb)
SW 23 mph
(SW 37 kph)
0.00 in
(0.00 mm)
10SM
08:54
Overcast
39°F / 4°C 28°F / -2°C 65% 29.89 in
(1012 mb)
SW 21.9 mph
(SW 35 kph)
0.00 in
(0.00 mm)
10SM
08:28
Overcast
39°F / 4°C 28°F / -2°C 65% 29.86 in
(1011 mb)
SW 26.5 mph
(SW 43 kph)
0.00 in
(0.00 mm)
10SM
08:09
Overcast
Small Hail
39°F / 4°C 27°F / -3°C 61% 29.86 in
(1011 mb)
SW 21.9 mph
(SW 35 kph)
0.00 in
(0.00 mm)
10SM
07:54
Overcast
Light Rain
39°F / 4°C 28°F / -2°C 65% 29.86 in
(1011 mb)
SW 21.9 mph
(SW 35 kph)
0.00 in
(0.00 mm)
10SM
06:54
Overcast
39°F / 4°C 28°F / -2°C 65% 29.83 in
(1010 mb)
SW 25.3 mph
(SW 41 kph)
- 10SM
05:54
Overcast
41°F / 5°C 30°F / -1°C 66% 29.8 in
(1009 mb)
SW 23 mph
(SW 37 kph)
- 10SM
04:54
Overcast
41°F / 5°C 30°F / -1°C 66% 29.77 in
(1008 mb)
SSW 27.6 mph
(SSW 44 kph)
- 10SM
04:21
Overcast
41°F / 5°C 28°F / -2°C 61% 29.77 in
(1008 mb)
SSW 31.1 mph
(SSW 50 kph)
- 10SM
03:54
Overcast
41°F / 5°C 30°F / -1°C 66% 29.77 in
(1008 mb)
SW 33.4 mph
(SW 54 kph)
- 10SM
02:54
Overcast
41°F / 5°C 32°F / 0°C 70% 29.74 in
(1007 mb)
SSW 24.2 mph
(SSW 39 kph)
- 10SM
01:54
Mostly Cloudy
43°F / 6°C 34°F / 1°C 71% 29.71 in
(1006 mb)
SSW 23 mph
(SSW 37 kph)
- 10SM
00:54
Partly Cloudy
41°F / 5°C 30°F / -1°C 66% 29.68 in
(1005 mb)
SSW 33.4 mph
(SSW 54 kph)
- 10SM
Time Weather Temperature Dewpoint Humidity Pressure Winds Precip Visibility


Weather for websites

WeatherForYou.com, LLC is not responsible for any damages or problems caused by this service. Current weather conditions are obtained from the closest station including government and personal stations which may have varying degrees of accuracy. Weather forecasts are derived from the NOAA NDFD. Like all things, this site belongs to Jesus Christ... He just trusts me to maintain it. If you have any questions or comments email webmaster@weatherforyou.com

Copyright © 2014, WeatherForYou.com LLC. All rights reserved.